GW2772 Weather Reports


Display with metric or nautical units.
time (UTC)temp
F
wind
direction
speed
MPH
gust
MPH
rain 1hr
in
rain 24hr
in
rain mn
in
humidity
%
barometer
mb
20260507064220 57 110 0.0 1.0 0.00 0.00 0.00 83 1017.5
20260507063717 57 64 0.0 0.0 0.00 0.00 0.00 83 1017.3
20260507063214 57 64 0.0 0.0 0.00 0.00 0.00 83 1017.2
20260507062710 57 64 0.0 0.0 0.00 0.00 0.00 82 1017.4
20260507062208 57 64 0.0 0.0 0.00 0.00 0.00 83 1017.4
20260507061706 57 71 0.0 0.0 0.00 0.00 0.00 82 1017.5
20260507061204 57 71 0.0 1.0 0.00 0.00 0.00 82 1017.4
20260507060702 57 71 0.0 1.0 0.00 0.00 0.00 82 1017.5
20260507060158 57 91 0.0 0.0 0.00 0.00 0.00 83 1017.6
20260507055654 57 79 0.0 0.0 0.00 0.00 0.00 83 1017.4
20260507055149 57 79 0.0 0.0 0.00 0.00 0.00 83 1017.7
20260507054646 57 79 0.0 0.0 0.00 0.00 0.00 83 1017.5
20260507054143 57 79 0.0 0.0 0.00 0.00 0.00 83 1017.4
20260507053641 57 79 0.0 0.0 0.00 0.00 0.00 83 1017.3
20260507053138 57 79 0.0 0.0 0.00 0.00 0.00 83 1017.5
20260507052637 57 79 0.0 0.0 0.00 0.00 0.00 83 1017.4
20260507052132 57 79 0.0 0.0 0.00 0.00 0.00 83 1017.3
20260507051630 57 79 0.0 0.0 0.00 0.00 0.00 82 1017.4
20260507051127 57 79 0.0 0.0 0.00 0.00 0.00 82 1017.2
20260507050624 57 79 0.0 0.0 0.00 0.00 0.00 82 1017.5
20260507050120 57 79 0.0 0.0 0.00 0.00 0.00 82 1017.3
20260507045618 57 79 0.0 0.0 0.00 0.00 0.00 82 1017.2
20260507045114 58 79 0.0 0.0 0.00 0.00 0.00 81 1017.4
20260507044611 57 79 0.0 0.0 0.00 0.00 0.00 81 1017.4
20260507044108 58 79 0.0 0.0 0.00 0.00 0.00 81 1017.4
20260507043603 58 79 0.0 0.0 0.00 0.00 0.00 81 1017.5
20260507043101 58 79 0.0 0.0 0.00 0.00 0.00 82 1017.5
20260507042556 58 79 0.0 0.0 0.00 0.00 0.00 81 1017.4
20260507042052 58 79 0.0 0.0 0.00 0.00 0.00 81 1017.4
20260507041549 58 79 0.0 0.0 0.00 0.00 0.00 81 1017.5
20260507041046 58 79 0.0 0.0 0.00 0.00 0.00 80 1017.5
20260507040543 59 79 0.0 0.0 0.00 0.00 0.00 80 1017.3
20260507040039 59 79 0.0 1.0 0.00 0.00 0.00 80 1017.2
20260507035535 58 340 0.0 0.0 0.00 0.00 0.00 80 1017.3
20260507035032 59 340 0.0 0.0 0.00 0.00 0.00 80 1017.3
20260507034528 59 340 0.0 0.0 0.00 0.00 0.00 79 1017.1
20260507034026 59 340 0.0 0.0 0.00 0.00 0.00 79 1017.0
20260507033524 59 340 0.0 0.0 0.00 0.00 0.00 79 1016.9
20260507033021 59 340 0.0 1.0 0.00 0.00 0.00 79 1017.2
20260507032518 59 174 0.0 0.0 0.00 0.00 0.00 79 1017.2
20260507032014 59 174 0.0 2.0 0.00 0.00 0.00 78 1017.0
20260507031510 60 220 0.0 1.0 0.00 0.00 0.00 78 1017.2
20260507031008 60 42 0.0 0.0 0.00 0.00 0.00 78 1016.8
20260507030505 60 244 0.0 1.0 0.00 0.00 0.00 77 1016.9
20260507030003 61 251 0.0 0.0 0.00 0.00 0.00 77 1016.8
20260507025459 61 219 0.0 0.0 0.00 0.00 0.00 76 1016.6
20260507024957 61 223 0.0 0.0 0.00 0.00 0.00 76 1016.8
20260507024454 62 223 0.0 0.0 0.00 0.00 0.00 75 1016.7
20260507023950 62 223 0.0 0.0 0.00 0.00 0.00 74 1016.6
20260507023447 62 218 2.0 3.0 0.00 0.00 0.00 73 1016.7
20260507022944 63 190 0.0 3.0 0.00 0.00 0.00 73 1016.5
20260507022441 63 208 0.0 0.0 0.00 0.00 0.00 72 1016.5
20260507021936 64 205 2.0 2.0 0.00 0.00 0.00 71 1016.5
20260507021432 65 226 0.0 0.0 0.00 0.00 0.00 70 1016.3
20260507020930 65 190 0.0 2.0 0.00 0.00 0.00 69 1016.3
20260507020426 65 216 0.0 2.0 0.00 0.00 0.00 69 1016.3
20260507015923 65 205 0.0 2.0 0.00 0.00 0.00 68 1016.2
20260507015422 66 178 0.0 3.0 0.00 0.00 0.00 67 1016.3
20260507014919 66 160 2.0 4.0 0.00 0.00 0.00 68 1016.2
20260507014415 66 219 3.0 5.0 0.00 0.00 0.00 67 1016.5
20260507013911 66 262 3.0 3.0 0.00 0.00 0.00 66 1016.3
20260507013408 68 214 0.0 4.0 0.00 0.00 0.00 65 1015.9
20260507012906 68 211 0.0 3.0 0.00 0.00 0.00 64 1015.9
20260507012402 69 208 0.0 3.0 0.00 0.00 0.00 64 1016.1
20260507011859 68 354 0.0 3.0 0.00 0.00 0.00 63 1016.0
20260507011355 69 219 1.0 4.0 0.00 0.00 0.00 61 1016.1
20260507010849 69 205 2.0 2.0 0.00 0.00 0.00 62 1016.0
20260507010345 68 230 2.0 4.0 0.00 0.00 0.00 62 1016.2
20260507005843 69 252 2.0 5.0 0.00 0.00 0.00 60 1016.2
20260507005339 69 211 3.0 5.0 0.00 0.00 0.00 59 1016.1
20260507004836 71 213 0.0 4.0 0.00 0.00 0.00 57 1016.1
20260507004333 71 225 2.0 4.0 0.00 0.00 0.00 57 1016.0
20260507003830 71 244 0.0 8.0 0.00 0.00 0.00 55 1016.2
20260507003326 71 224 0.0 6.0 0.00 0.00 0.00 55 1015.8
20260507002821 72 208 3.0 5.0 0.00 0.00 0.00 53 1016.0
20260507002317 72 150 0.0 4.0 0.00 0.00 0.00 53 1015.9
20260507001815 74 250 0.0 5.0 0.00 0.00 0.00 52 1015.9
20260507001312 75 244 0.0 6.0 0.00 0.00 0.00 53 1015.7
20260507000808 74 222 0.0 5.0 0.00 0.00 0.00 52 1015.8
20260507000306 74 230 2.0 5.0 0.00 0.00 0.00 51 1015.6
20260506235801 74 240 0.0 5.0 0.00 0.00 0.00 51 1015.7
20260506235256 74 339 0.0 4.0 0.00 0.00 0.00 53 1015.8
20260506234754 73 206 5.0 6.0 0.00 0.00 0.00 52 1015.7
20260506234251 74 235 0.0 5.0 0.00 0.00 0.00 54 1015.9
20260506233748 71 219 4.0 9.0 0.00 0.00 0.00 54 1015.6
20260506233244 73 206 3.0 6.0 0.00 0.00 0.00 52 1015.7
20260506232741 75 241 1.0 4.0 0.00 0.00 0.00 51 1015.6
20260506232236 73 210 5.0 7.0 0.00 0.00 0.00 54 1015.8
20260506231733 72 208 3.0 6.0 0.00 0.00 0.00 56 1015.8
20260506231232 73 311 2.0 7.0 0.00 0.00 0.00 56 1015.4
20260506230728 73 184 4.0 7.0 0.00 0.00 0.00 56 1015.9
20260506230225 73 216 3.0 5.0 0.00 0.00 0.00 55 1015.8
20260506225721 75 205 0.0 7.0 0.00 0.00 0.00 53 1016.1
20260506225219 75 193 5.0 5.0 0.00 0.00 0.00 53 1016.0
20260506224715 75 235 0.0 4.0 0.00 0.00 0.00 55 1015.8
20260506224212 74 250 0.0 4.0 0.00 0.00 0.00 54 1016.1
20260506223709 72 192 5.0 9.0 0.00 0.00 0.00 58 1016.1
20260506223204 73 197 5.0 8.0 0.00 0.00 0.00 56 1016.3
20260506222702 73 271 1.0 7.0 0.00 0.00 0.00 58 1016.2
20260506222156 72 190 5.0 7.0 0.00 0.00 0.00 57 1016.5
20260506221655 73 213 2.0 7.0 0.00 0.00 0.00 58 1016.3
20260506221153 71 221 3.0 6.0 0.00 0.00 0.00 60 1016.3
20260506220649 73 255 0.0 5.0 0.00 0.00 0.00 58 1016.4
20260506220144 73 265 0.0 5.0 0.00 0.00 0.00 58 1016.5
20260506215641 73 213 0.0 5.0 0.00 0.00 0.00 59 1016.5
20260506215136 71 216 4.0 5.0 0.00 0.00 0.00 60 1016.5
20260506214634 71 249 5.0 5.0 0.00 0.00 0.00 59 1016.6
20260506214131 71 207 3.0 13.0 0.00 0.00 0.00 60 1016.7
20260506213630 71 186 2.0 8.0 0.00 0.00 0.00 62 1016.7
20260506213126 71 177 4.0 5.0 0.00 0.00 0.00 60 1016.6
20260506212624 70 213 2.0 9.0 0.00 0.00 0.00 63 1016.9
20260506212118 72 357 2.0 6.0 0.00 0.00 0.00 61 1016.8
20260506211614 71 190 5.0 8.0 0.00 0.00 0.00 60 1016.9
20260506211111 71 258 6.0 9.0 0.00 0.00 0.00 60 1016.9
20260506210608 72 245 3.0 6.0 0.00 0.00 0.00 62 1016.8
20260506210104 71 235 2.0 8.0 0.00 0.00 0.00 60 1016.9
20260506205601 71 177 5.0 6.0 0.00 0.00 0.00 61 1016.9
20260506205056 72 186 5.0 5.0 0.00 0.00 0.00 61 1016.9
20260506204555 71 216 7.0 7.0 0.00 0.00 0.00 60 1017.0
20260506204051 70 251 3.0 6.0 0.00 0.00 0.00 61 1017.1
20260506203550 71 208 1.0 6.0 0.00 0.00 0.00 62 1016.9
20260506203046 69 228 1.0 7.0 0.00 0.00 0.00 63 1017.1
20260506202544 70 203 5.0 10.0 0.00 0.00 0.00 61 1017.1
20260506202040 70 202 5.0 8.0 0.00 0.00 0.00 61 1017.1
20260506201538 71 299 0.0 9.0 0.00 0.00 0.00 60 1017.3
20260506201034 70 255 4.0 7.0 0.00 0.00 0.00 59 1017.0
20260506200530 71 272 2.0 4.0 0.00 0.00 0.00 59 1017.3
20260506200027 71 217 3.0 6.0 0.00 0.00 0.00 58 1017.2
20260506195524 71 210 2.0 10.0 0.00 0.00 0.00 56 1017.1
20260506195020 71 217 3.0 4.0 0.00 0.00 0.00 55 1017.4
20260506194518 70 208 4.0 9.0 0.00 0.00 0.00 55 1017.5
20260506194014 70 205 6.0 7.0 0.00 0.00 0.00 56 1017.7
20260506193512 70 226 2.0 5.0 0.00 0.00 0.00 55 1017.5
20260506193008 69 218 0.0 9.0 0.00 0.00 0.00 57 1017.5
20260506192505 71 235 2.0 4.0 0.00 0.00 0.00 57 1017.5
20260506192001 70 186 0.0 5.0 0.00 0.00 0.00 59 1017.6
20260506191458 69 212 3.0 8.0 0.00 0.00 0.00 57 1017.9
20260506190954 69 176 6.0 8.0 0.00 0.00 0.00 58 1017.5
20260506190451 68 208 3.0 8.0 0.00 0.00 0.00 58 1017.8
20260506185942 69 208 8.0 8.0 0.00 0.00 0.00 57 1017.9
20260506185440 70 344 0.0 2.0 0.00 0.00 0.00 59 1017.9
20260506184937 68 211 6.0 6.0 0.00 0.00 0.00 58 1017.9
20260506184433 69 228 3.0 3.0 0.00 0.00 0.00 61 1017.9
20260506183931 68 235 1.0 3.0 0.00 0.00 0.00 60 1017.9
20260506183426 68 201 3.0 5.0 0.00 0.00 0.00 60 1018.1
20260506182924 68 250 0.0 4.0 0.00 0.00 0.00 59 1017.9
20260506182421 67 235 1.0 4.0 0.00 0.00 0.00 62 1018.4
20260506181918 67 215 3.0 4.0 0.00 0.00 0.00 62 1018.3
20260506181416 66 197 5.0 6.0 0.00 0.00 0.00 62 1018.4
20260506180912 68 339 0.0 3.0 0.00 0.00 0.00 61 1018.2
20260506180409 67 242 1.0 2.0 0.00 0.00 0.00 63 1018.3
20260506175906 67 235 2.0 3.0 0.00 0.00 0.00 62 1018.2
20260506175402 67 40 0.0 2.0 0.00 0.00 0.00 63 1018.3
20260506174859 65 235 0.0 3.0 0.00 0.00 0.00 63 1018.4
20260506174357 65 325 0.0 1.0 0.00 0.00 0.00 63 1018.1
20260506173854 64 271 1.0 6.0 0.00 0.00 0.00 64 1018.4
20260506173350 64 220 2.0 4.0 0.00 0.00 0.00 67 1018.4
20260506172848 64 231 3.0 4.0 0.00 0.00 0.00 65 1018.2
20260506172344 65 320 0.0 3.0 0.00 0.00 0.00 65 1018.2
20260506171842 65 198 3.0 3.0 0.00 0.00 0.00 63 1018.4
20260506171339 67 77 0.0 2.0 0.00 0.00 0.00 62 1018.3
20260506170836 64 205 0.0 2.0 0.00 0.00 0.00 66 1018.3
20260506170332 62 163 0.0 3.0 0.00 0.00 0.00 68 1018.4
20260506165832 62 214 3.0 3.0 0.00 0.00 0.00 66 1018.3
20260506165329 64 235 0.0 2.0 0.00 0.00 0.00 63 1018.3
20260506164825 62 213 0.0 3.0 0.00 0.00 0.00 65 1018.4
20260506164322 61 265 2.0 3.0 0.00 0.00 0.00 67 1018.2
20260506163819 61 213 2.0 4.0 0.00 0.00 0.00 66 1018.5
20260506163314 63 161 0.0 2.0 0.00 0.00 0.00 65 1018.5
20260506162810 64 349 0.0 0.0 0.00 0.00 0.00 64 1018.5
20260506162308 61 349 0.0 2.0 0.00 0.00 0.00 69 1018.6
20260506161805 60 223 2.0 4.0 0.00 0.00 0.00 69 1018.6
20260506161302 60 185 0.0 2.0 0.00 0.00 0.00 68 1018.3
20260506160800 61 163 0.0 1.0 0.00 0.00 0.00 67 1018.4
20260506160256 62 163 0.0 2.0 0.00 0.00 0.00 64 1018.4
20260506155755 61 205 2.0 2.0 0.00 0.00 0.00 66 1018.5
20260506155251 60 155 0.0 0.0 0.00 0.00 0.00 68 1018.5
20260506153404 61 151 0.0 3.0 0.00 0.00 0.00 66 1018.4
20260506152901 59 159 0.0 3.0 0.00 0.00 0.00 72 1018.3
20260506152358 59 157 0.0 1.0 0.00 0.00 0.00 73 1018.3
20260506151857 60 119 0.0 2.0 0.00 0.00 0.00 70 1018.3
20260506151353 60 202 0.0 0.0 0.00 0.00 0.00 72 1018.3
20260506150851 58 226 0.0 0.0 0.00 0.00 0.00 74 1018.6
20260506150347 59 160 0.0 2.0 0.00 0.00 0.00 73 1018.6
20260506145844 60 125 0.0 0.0 0.00 0.00 0.00 70 1018.6
20260506145340 61 125 1.0 2.0 0.00 0.00 0.00 69 1018.5
20260506144838 59 219 0.0 0.0 0.00 0.00 0.00 71 1018.2
20260506144334 62 85 0.0 0.0 0.00 0.00 0.00 64 1018.2
20260506143833 65 85 0.0 0.0 0.00 0.00 0.00 65 1018.2
20260506143329 63 85 0.0 0.0 0.00 0.00 0.00 67 1018.3
20260506142828 61 85 0.0 0.0 0.00 0.00 0.00 72 1018.2
20260506142325 58 85 0.0 0.0 0.00 0.00 0.00 76 1018.1
20260506141823 56 85 0.0 0.0 0.00 0.00 0.00 79 1018.3
20260506141321 54 85 0.0 0.0 0.00 0.00 0.00 82 1018.3
20260506140819 51 79 1.0 1.0 0.00 0.00 0.00 83 1018.4
20260506140315 51 64 0.0 0.0 0.00 0.00 0.00 83 1018.1
20260506135813 50 64 0.0 0.0 0.00 0.00 0.00 82 1018.3
20260506135309 50 82 1.0 1.0 0.00 0.00 0.00 83 1017.9
20260506134806 50 71 0.0 1.0 0.00 0.00 0.00 83 1017.9
20260506134302 50 96 0.0 2.0 0.00 0.00 0.00 83 1017.8
20260506133759 50 91 0.0 1.0 0.00 0.00 0.00 83 1017.7
20260506133256 50 71 0.0 1.0 0.00 0.00 0.00 83 1017.6
20260506132753 50 85 0.0 2.0 0.00 0.00 0.00 84 1017.9
20260506132250 50 70 0.0 2.0 0.00 0.00 0.00 84 1017.4
20260506131748 50 92 2.0 2.0 0.00 0.00 0.00 84 1017.5
20260506131243 50 96 0.0 2.0 0.00 0.00 0.00 84 1017.6
20260506130740 50 72 2.0 2.0 0.00 0.00 0.00 83 1017.4
20260506130237 50 79 0.0 1.0 0.00 0.00 0.00 83 1017.5
20260506125735 50 71 0.0 1.0 0.00 0.00 0.00 83 1017.3
20260506125233 49 91 1.0 2.0 0.00 0.00 0.00 83 1017.5
20260506124731 49 79 1.0 2.0 0.00 0.00 0.00 84 1017.3
20260506124228 49 63 0.0 2.0 0.00 0.00 0.00 85 1017.3
20260506123726 49 110 1.0 1.0 0.00 0.00 0.00 85 1017.0
20260506123224 49 71 0.0 1.0 0.00 0.00 0.00 86 1017.2
20260506122721 49 85 1.0 2.0 0.00 0.00 0.00 86 1016.8
20260506122218 49 76 0.0 1.0 0.00 0.00 0.00 87 1017.0
20260506121716 49 70 0.0 1.0 0.00 0.00 0.00 88 1016.9
20260506121212 49 79 0.0 1.0 0.00 0.00 0.00 88 1017.1
20260506120710 49 68 0.0 1.0 0.00 0.00 0.00 88 1017.2
20260506120208 49 74 0.0 0.0 0.00 0.00 0.00 88 1017.1
20260506115706 49 74 0.0 1.0 0.00 0.00 0.00 88 1017.3
20260506115203 49 64 0.0 2.0 0.00 0.00 0.00 88 1017.0
20260506114701 49 79 0.0 1.0 0.00 0.00 0.00 89 1017.1
20260506114158 49 85 0.0 0.0 0.00 0.00 0.00 88 1017.2
20260506113657 50 68 0.0 2.0 0.00 0.00 0.00 89 1017.4
20260506113154 50 85 0.0 1.0 0.00 0.00 0.00 89 1017.1
20260506112649 50 71 0.0 1.0 0.00 0.00 0.00 89 1017.2
20260506112148 50 110 0.0 2.0 0.00 0.00 0.00 89 1016.8
20260506111645 49 79 0.0 1.0 0.00 0.00 0.00 89 1017.0
20260506111142 49 91 0.0 1.0 0.00 0.00 0.00 89 1017.0
20260506110640 49 79 0.0 0.0 0.00 0.00 0.00 88 1017.2
20260506110137 50 55 0.0 1.0 0.00 0.00 0.00 88 1017.2
20260506105633 50 76 1.0 2.0 0.00 0.00 0.00 88 1017.2
20260506105130 50 79 0.0 0.0 0.00 0.00 0.00 88 1017.0
20260506104629 50 79 0.0 1.0 0.00 0.00 0.00 88 1017.1
20260506104126 50 63 1.0 1.0 0.00 0.00 0.00 88 1017.0
20260506103623 49 76 0.0 1.0 0.00 0.00 0.00 87 1017.1
20260506103120 49 71 0.0 1.0 0.00 0.00 0.00 87 1017.3
20260506102618 49 64 0.0 1.0 0.00 0.00 0.00 87 1017.0
20260506102115 49 71 0.0 0.0 0.00 0.00 0.00 87 1017.0
20260506101612 49 71 0.0 2.0 0.00 0.00 0.00 87 1016.9
20260506101108 50 88 0.0 0.0 0.00 0.00 0.00 87 1017.0
20260506100607 50 74 0.0 1.0 0.00 0.00 0.00 87 1017.0
20260506100105 50 85 0.0 2.0 0.00 0.00 0.00 87 1017.0
20260506095603 50 70 0.0 0.0 0.00 0.00 0.00 87 1017.2
20260506095059 50 71 0.0 1.0 0.00 0.00 0.00 87 1016.9
20260506094557 50 62 0.0 1.0 0.00 0.00 0.00 87 1017.1
20260506094055 50 79 0.0 0.0 0.00 0.00 0.00 86 1017.0
20260506093553 50 79 0.0 1.0 0.00 0.00 0.00 86 1017.1
20260506093050 50 85 0.0 1.0 0.00 0.00 0.00 86 1017.1
20260506092548 50 85 0.0 1.0 0.00 0.00 0.00 86 1017.1
20260506092045 50 46 0.0 0.0 0.00 0.00 0.00 86 1017.2
20260506091543 50 46 0.0 0.0 0.00 0.00 0.00 85 1017.2
20260506091039 50 71 0.0 1.0 0.00 0.00 0.00 85 1017.2
20260506090537 50 64 0.0 1.0 0.00 0.00 0.00 85 1017.2
20260506090034 50 85 0.0 2.0 0.00 0.00 0.00 85 1017.2
20260506085531 50 85 0.0 2.0 0.00 0.00 0.00 84 1017.3
20260506085027 50 79 0.0 1.0 0.00 0.00 0.00 84 1017.3
20260506084524 50 137 0.0 0.0 0.00 0.00 0.00 84 1017.3
20260506084020 50 85 0.0 0.0 0.00 0.00 0.00 84 1017.2
20260506083517 50 85 0.0 1.0 0.00 0.00 0.00 84 1017.5
20260506083015 50 76 0.0 0.0 0.00 0.00 0.00 84 1017.6
20260506082511 50 76 0.0 0.0 0.00 0.00 0.00 85 1017.5
20260506082007 50 76 0.0 0.0 0.00 0.00 0.00 85 1017.7
20260506081506 50 76 0.0 0.0 0.00 0.00 0.00 85 1017.6
20260506081003 50 76 0.0 1.0 0.00 0.00 0.00 85 1017.6
20260506080500 49 47 0.0 0.0 0.00 0.00 0.00 86 1017.6
20260506073443 50 91 0.0 1.0 0.00 0.00 0.00 86 1017.7
20260506072941 51 71 0.0 1.0 0.00 0.00 0.00 86 1017.7
20260506072438 50 62 0.0 1.0 0.00 0.00 0.00 85 1017.9
20260506071936 50 125 0.0 0.0 0.00 0.00 0.00 85 1017.9
20260506071433 51 82 0.0 2.0 0.00 0.00 0.00 85 1017.8
20260506070930 51 79 0.0 1.0 0.00 0.00 0.00 85 1017.6
20260506070427 51 71 0.0 2.0 0.00 0.00 0.00 84 1017.5